Погода Большой Шантар

Погода Большой Шантар : погода сейчас, прогноз погоды и архив. Всё, что Вы хотите узнать о погоде Большой Шантар!

Хотите узнать прогноз погоды Большой Шантар? Тогда Вам сюда: Погода Большой Шантар

Поиск расширенной информации на нашем сайте:

Другие новости

Новости СМИ2

Главная страница сайта

Новости сайта

03.07.2017

Напоминаем, что на нашем специализированном сайте Метеоцентр.Азия вы можете получить высокодетализированные автоматические прогнозы погоды по пунктам России, СНГ и мира в авиационном формате (включающие направление и скорость ветра, видимость, явления погоды, количество и форму облачности, нижнюю и верхнюю границу облачности).

Рекомендуем: мобильные электрокардиографы

Погода Большой Шантар - сегодня

Время (UTC), дата Ветер
(°,м/с) 
Видим.   Явления Облачность Т
(°С)
Тd
(°С)
f(%) Тe
(°С)
Pmin
(гПа)
dP
(гПа)
Po
(мм)
O2
(г/м3)
Тmin Tmax R s Состояние
почвы
18 19.10.17 040 (СВ) 20000 м    10/0 верхняя 
[Cs]
-5.3 -7.9 82 -7  1021.9  -0.4  766  315           
21 19.10.17 020 (С) 20000 м    10/3 600 м средняя, верхняя 
[Sc|As trans|Cs]
-6.3 -8.3 86 -9  1021.6  -0.3  765  317  -7.5        сухая 
00 20.10.17 020 (С) 20000 м    10/0 средняя 
[As trans]
-1.9 -5.5 76 -3  1022.2  0.7  766  311           
03 20.10.17 200 (Ю) 20000 м    4/3 600 м верхняя 
[Cu hum|Ci fib]
+4.4 -7.1 43 +3  1021.3  -0.9  765  304           
06 20.10.17 190 (Ю) 20000 м    6/4 600 м верхняя 
[Sc|Ci fib]
+5 -5.4 47 +3  1020.7  -0.6  765  303           
09 20.10.17 010 (С) 20000 м    10/3 600 м верхняя 
[Sc|Cs]
-2.2 -6.9 70 -3  1021.5  0.7  765  312    +5       
12 20.10.17 030 (СВ) 20000 м    10/0 верхняя 
[Cs]
-3.4 -6.3 80 -5  1020.9  -0.5  765  313           
15 20.10.17 020 (С) 20000 м    10/0 средняя 
[As trans]
-1.5 -4.6 79 -3  1020.3  -0.6  764  310           
18 20.10.17 360 (С) 20000 м    10/0 средняя, верхняя 
[Ac trans|Cs]
+0.8 -4.1 70 -1  1018.4  -1.9  763  307           
21 20.10.17 040 (СВ) 20000 м    10/0 средняя 
[Ac As]
+1.4 -3.9 68 +1  1016.7  -1.6  762  306  -4        сухая 
00 21.10.17 040 (СВ) 20000 м    10/3 600 м средняя 
[Cu med, cong|Ac As]
+4.8 -1.5 64 +4  1015.3  -1.4  761  301           
03 21.10.17 070 (В) 6{11}  20000 м    9/5 600 м кучево-дожд., средняя, верхняя 
[Cb cap|Ac lent|Cc]
+7.5 -1 55 +5  1011.6  -3.6  758  297           
06 21.10.17 050 (СВ) 6-13{13}  20000 м    10/10 600 м кучево-дожд. 
[Cb cap]
+6.5 +2.1 73 +4  1008  -3.7  755  297           
09 21.10.17 040 (СВ) 10-14{16}  10 км  слаб. ливневой дождь  10/10 600 м кучево-дожд. 
[Cb cap]
+3.9 +2.2 89 1005.7  -2.2  753  299    +7.9     
12 21.10.17 030 (СВ) 7-12{16}  10 км  слаб. ливневой дождь  10/10 600 м кучево-дожд. 
[Cb cap]
+2.3 +1.1 92 -1  1003.9  -1.9  752  300           
15 21.10.17 120 (ЮВ) 2{12}  10 км  слаб. ливневой дождь  10/10 600 м кучево-дожд. 
[Cb cap]
+1.9 +0.6 91 +1  1002.3  -1.6  751  300           
18 21.10.17 110 (В) 2{10}  10 км  слаб. ливневой дождь  10/10 600 м кучево-дожд. 
[Cb cap]
+1.5 +0.7 94 +1  1001.1  -1.1  750  300           
21 21.10.17 030 (СВ) 20000 м  в посл. час ливневой дождь  10/10 600 м 
[Sc]
+1.5 +0.7 94 1002.4  1.3  751  301  +1.1    11    влажная 
00 22.10.17 040 (СВ) 20000 м  {ливн. осадки}  10/8 600 м кучево-дожд., средняя 
[Cb cap|Ac lent]
+2.6 +1.5 92 +3  1004.4  1.9  752  300           
03 22.10.17 300 (СЗ) 5{13}  10 км  слаб. ливневой снег  10/10 300 м кучево-дожд. 
[Cb cap]
+1 -1.5 83 -2  1006.4  754  303           
06 22.10.17 320 (СЗ) 5{16}  10 км  слаб. ливневой снег  10/10 300 м кучево-дожд. 
[Cb cap]
-1.1 -2.1 93 -4  1007.5  1.1  755  306           
09 22.10.17 320 (СЗ) 7-12{17}  10 км  слаб. ливневой снег  10/10 600 м кучево-дожд. 
[Cb cap]
+0.3 -4.7 69 -4  1008.3  0.8  755  305    +2.6     
12 22.10.17 320 (СЗ) 8-14{15}  10 км  слаб. ливневой снег  10/10 600 м кучево-дожд. 
[Cb cap]
+0.3 -3.8 74 -4  1010.5  2.2  757  305           
15 22.10.17 310 (СЗ) 6{14}  20000 м  {ливн. осадки}  3/3 600 м 
[Sc]
-0 -5.2 68 -3  1011  0.5  757  306           
18 22.10.17 320 (СЗ) 7-11{14}  20000 м  {ливн. осадки}  3/3 600 м 
[Sc]
+1 -4.3 68 -3  1012.1  1.1  758  305           
Время (UTC), дата Ветер
(°,м/с) 
Видим.   Явления Облачность Т
(°С)
Тd
(°С)
f(%) Тe
(°С)
Pmin
(гПа)
dP
(гПа)
Po
(мм)
O2
(г/м3)
Тmin Tmax R s Состояние
почвы

Для получения пояснительной информации подведите курсор к названию столбца.

ПОГОДА Большой Шантар - архив

Всё, что Вы хотите узнать о погоде Большой Шантар - удобно и подробно!

Выберите нужную дату (начиная с 1 января 2015* года) и нажмите кнопку "Найти".
Будут отображены архивные сводки погоды по пункту Большой Шантар, начиная с указанной даты.


Отображать данные в формате CSV (для использования в таблицах Excel)


Внимание! Наш архив погоды предназначен исключительно для личного некоммерческого использования в познавательных целях. Если Вам необходимы официальные справки о состоянии погоды (для производственных, юридических, коммерческих и т.п. целей), обращайтесь в органы Росгидромета.

*Примечание: данная дата относится к архиву по метеостанциям СССР (Россия, СНГ, Балтия).
Архив по метеостанциям Зарубежной Европы и Азии (кроме Китая) хранится 10 дней, по другим регионам земного шара (Китай, Африка, Америка, Австралия, Океания) - 1 день.

Большой Шантар - район местоположения метеостанции


Название, широта, долгота, высота метеостанции:
Большой Шантар 54.8°ш. 137.5°д. 21 м над ур. моря [Российская Федерация]

Дополнительная информация

В oтличие oт бoльшинства пoгoдных сайтoв мы публикуем пoдрoбную метеoинфoрмацию в детальнoм прoфессиoнальнoм фoрмате.

Характеристики температуры и влажнoсти вoздуха измеряются на высoте 2 м в тени вдали oт зданий и деревьев.
Скoрoсть ветра измеряется на высoте 10 м (на урoвне рoста челoвека скoрoсть ветра ниже в 1.5-2 раза). Если метеoстанция нахoдится в гoрoде или в лесу, тo скoрoсть ветра занижена на 2-4 м/с пo сравнению с oткрытым местoм. Скoрoсть ветра над акватoриями крупных рек и oзёр, а также на вершинах хoлмoв на 2-5 м/с выше, чем в oбычных услoвиях.
Атмoсфернoе давление в разных тoчках местнoсти мoжет значительнo oтличаться oт давления на метеoстанции, в зависимoсти oт услoвий рельефа (при пoдъёме на 10 м давление пoнижается примернo на 1 мм рт.ст.).